User: anonymous   Login
Location: Melbourne
(37.8170°S, 144.9670°E)
Time: 17:32:56
(UTC+11:00)
Language:

Aureole 2 Rocket - Orbit

View from above orbital plane
View from above orbital plane
View from above satellite
View from above satellite

Ground track
Ground track

The orbit data is extracted from the following two-line orbital elements,

1 07004U 73107B   16041.75477088  .00024827  00000-0  47412-3 0  9991
2 07004  73.9392  43.5988 0219797  37.8286 323.8128 15.25837880161734
Epoch (UTC): 10 February 2016 18:06:52
Eccentricity: 0.0219797
inclination: 73.9392°
perigee height: 337 km
apogee height: 639 km
right ascension of ascending node: 43.5988°
argument of perigee: 37.8286°
revolutions per day: 15.25837880
mean anomaly at epoch: 323.8128°
orbit number at epoch: 16173

The dashed part of the orbit path shows where the satellite is in the earth's shadow,  

DLR